Terminal Aerodrome Forecast
Issued by NWS Lake Charles, LA

Home | Current Version | Previous Version | Text Only | Print | Product List | Glossary On
Versions: 1 2 3 4 5 6 7 8 9 10 11 12 13
000
FTUS44 KLCH 121100
TAFBPT
TAF
KBPT 121120Z 1212/1312 VRB05KT P6SM SKC
     FM121700 VRB06KT P6SM VCTS SCT040CB
     FM122300 VRB03KT P6SM FEW060=

USA.gov is the U.S. government's official web portal to all federal, state and local government web resources and services.